Das Wetter in  D-61279 Heinzenberg / Taunus





Wetter Minimum- & Maximum-Werte im Mai 2014

Standort: Heinzenberg / Taunus - Höhe 297 m         8 24' 1" Ost 50 21' 51" Nord
(   3-stündige Aktualisierung    letzte Aktualisierung um 19:04 am 31.05.2014  )


Messgrösse

Minimum

Maximum

Durchschnitt

Temperatur West /
Luftfeuchte West
Anklicken für Monats-Diagramm

-0,6 C

06:15
04.05.2014

32 %

16:02
21.05.2014

28,8 C

17:11
20.05.2014

91 %

05:53
27.05.2014

Temp

12,9 C

Feuchte

72 %

Temperatur Ost /
Luftfeuchte Ost
Anklicken für Monats-Diagramm

-0,4 C

06:10
04.05.2014

--

--
--

28,5 C

15:52
21.05.2014

--

--
--

12,7 C

--

Luftdruck Anklicken für Monats-Diagramm

1004,9 hPa

16:52
11.05.2014

1034,8 hPa

00:57
16.05.2014

1015,8 hPa

Taupunkt

-3,8 C

06:15
04.05.2014

15,3 C

16:32
26.05.2014

7,5 C

Windchill
( gefühlte Temperatur )

-4,2 C

07:43
12.05.2014

28,6 C

17:06
20.05.2014

10,9 C

Windgeschwindigkeit /
Windrichtung
Anklicken für Monats-Diagramm

---

60,6 km/h / W

14:30
09.05.2014

8,9 km/h
W-SW

Helligkeit /
Sonnenschein
Anklicken für Monats-Diagramm
Anklicken für Monats-Diagramm

Sonnenschein:

156:50 Stunden

Max: 13:20 Std am
17.05.2014

113 klux

15:03
27.05.2014

29 klux

Solarstrahlung Anklicken für Monats-Diagramm

---

773 W/m

15:03
27.05.2014

213 W/m

Regenmenge
    Mai 2014
Anklicken für Monats-Diagramm

Insgesamt 67,0 l/m

in 61:24 Stunden
an 18 Tagen

12,9 l/m

20:07
26.05.2014

Gesamtmenge

67,0 l/m

Regen-Tage
    Mai 2014
Anklicken für Monats-Diagramm

>   0 mm/Tag

>   2 mm/Tag

>   5 mm/Tag

> 10 mm/Tag

> 20 mm/Tag

18 Tage     
8 Tage     
6 Tage     
  1 Tag     
0 Tage     

Eisige Tage Mai 2014 / 2013

Tmin ≤ -10C     

0 Tage

/

0 Tage

Eistage Mai 2014 / 2013

Tmax <     0C     

0 Tage

/

0 Tage

Frosttage Mai 2014 / 2013

Tmin ≤     0C     

  1 Tag

/

0 Tage

Kalte Tage Mai 2014 / 2013

Tmax <   10C     

0 Tage

/

2 Tage

Warme Tage Mai 2014 / 2013

Tmax ≥   20C     

11 Tage

/

8 Tage

Sommertage Mai 2014 / 2013

Tmax ≥   25C     

5 Tage

/

0 Tage

Heisse Tage Mai 2014 / 2013

Tmax ≥   30C     

0 Tage

/

0 Tage


Monatsdiagramm Mai 2014

Die Kurven zeigen den Durchschnittswert des jeweiligen Tages an


Wetter-Monatsübersicht Mai 2014
Datum
  Temperatur
   Luftdruck
   Wind
  Regen
   Luftfeuchte
   Helligkeit

Sonnen-
schein


Temp.

Min.
Temp.

Max.
Temp.


Luftdruck

Min.
Luftdruck

Max.
Luftdruck

-Geschw.
Haupt-Richtg.

Max.
Wind

Menge /
Dauer


Feuchte

Min.
Feuchte

Max.
Feuchte


Helligkeit

Max.
Helligkeit

1.
Mai
13,4 C10,1 C
05:27
19,1 C
13:42
1010,7 hPa1008,7 hPa
16:52
1012,4 hPa
10:42
4,1 km/h
W-NW
23,0 km/h
17:47  
---
76 %53 %
13:17
89 %
06:17
23,2 klux85,9 klux
13:32
1:40 Std 
2.
Mai
11,0 C7,0 C
23:49
15,1 C
12:58
1013,9 hPa1010,5 hPa
00:03
1020,4 hPa
23:49
6,2 km/h
NW
22,1 km/h
20:33  
1,1 l/m
2:10 Stunden
82 %70 %
12:48
88 %
07:48
15,0 klux53,6 klux
12:23
5 Min 
3.
Mai
9,1 C4,1 C
23:50
16,9 C
18:14
1022,5 hPa1020,4 hPa
00:04
1024,9 hPa
23:50
8,7 km/h
NO
24,6 km/h
12:39  
---
64 %35 %
17:44
86 %
00:04
33,7 klux96,3 klux
12:04
7:20 Std 
4.
Mai
8,2 C-0,6 C
06:15
16,9 C
18:25
1023,0 hPa1019,1 hPa
18:30
1026,1 hPa
00:55
5,5 km/h
W-NW
22,6 km/h
18:35  
---
63 %43 %
18:45
81 %
08:00
40,8 klux92,0 klux
12:55
11:00 Std 
5.
Mai
11,1 C1,7 C
06:51
21,6 C
18:01
1017,6 hPa1013,4 hPa
18:01
1021,7 hPa
01:16
3,3 km/h
SO
16,0 km/h
19:01  
---
61 %39 %
17:41
83 %
08:11
38,0 klux74,9 klux
14:36
8:36 Std 
6.
Mai
12,3 C4,5 C
06:42
18,2 C
12:22
1011,4 hPa1007,9 hPa
23:57
1014,2 hPa
02:37
11,0 km/h
W-SW
33,0 km/h
23:42  
0,3 l/m
1:00 Stunden
69 %55 %
12:37
82 %
08:02
20,7 klux63,0 klux
11:12
30 Min 
7.
Mai
12,4 C9,6 C
23:59
17,8 C
17:27
1011,5 hPa1007,9 hPa
00:52
1014,8 hPa
23:59
18,4 km/h
W-SW
54,5 km/h
17:42  
4,9 l/m
6:47 Stunden
77 %58 %
17:37
87 %
05:37
26,4 klux98,6 klux
14:27
3:40 Std 
8.
Mai
11,4 C9,0 C
06:14
16,0 C
14:49
1013,7 hPa1009,5 hPa
23:20
1015,9 hPa
07:34
17,1 km/h
W-SW
40,2 km/h
09:19  
9,9 l/m
5:56 Stunden
78 %61 %
14:44
89 %
23:35
19,1 klux78,6 klux
14:34
1:00 Std 
9.
Mai
14,1 C11,0 C
22:15
18,3 C
13:35
1012,0 hPa1009,4 hPa
02:35
1015,7 hPa
23:21
26,2 km/h
W
60,6 km/h
14:30  
---
16 Minuten
71 %49 %
15:25
89 %
00:00
35,6 klux98,1 klux
12:05
5:39 Std 
10.
Mai
11,0 C7,8 C
06:06
15,4 C
13:11
1012,3 hPa1005,3 hPa
22:16
1017,1 hPa
05:06
15,2 km/h
W-SW
49,2 km/h
22:37  
9,7 l/m
7:11 Stunden
78 %66 %
12:56
89 %
21:36
14,7 klux68,5 klux
13:01
5 Min 
11.
Mai
10,4 C7,8 C
04:42
14,8 C
16:52
1006,4 hPa1004,9 hPa
16:52
1008,7 hPa
22:53
28,4 km/h
W-SW
50,5 km/h
14:32  
0,3 l/m
1:10 Stunden
74 %58 %
14:47
87 %
00:02
34,3 klux110,0 klux
13:42
5:15 Std 
12.
Mai
9,6 C6,4 C
06:08
15,2 C
17:48
1010,8 hPa1008,7 hPa
00:03
1013,0 hPa
22:59
21,8 km/h
W-SW
40,4 km/h
13:23  
1,4 l/m
50 Minuten
73 %55 %
17:03
85 %
23:59
35 klux98 klux
14:12
6:44 Std 
13.
Mai
9,6 C6,8 C
03:09
14,8 C
16:59
1015,7 hPa1013,0 hPa
00:04
1022,3 hPa
23:55
9,8 km/h
W
32,7 km/h
17:49  
0,3 l/m
1:00 Stunden
77 %56 %
12:49
87 %
05:29
28,3 klux100,0 klux
12:54
3:15 Std 
14.
Mai
8,8 C2,7 C
06:55
15,6 C
16:05
1026,8 hPa1022,3 hPa
00:00
1030,7 hPa
23:56
8,5 km/h
NW
31,6 km/h
12:05  
0,3 l/m
1:01 Stunden
73 %50 %
16:25
88 %
07:35
33 klux101 klux
14:55
5:15 Std 
15.
Mai
8,2 C2,6 C
06:01
13,2 C
16:21
1033,0 hPa1030,7 hPa
00:01
1034,7 hPa
23:52
4,6 km/h
N-NW
16,9 km/h
15:21  
0,2 l/m
10 Minuten
77 %65 %
17:11
88 %
08:11
18 klux95 klux
16:11
10 Min 
16.
Mai
12,6 C4,8 C
03:47
21,6 C
18:22
1029,5 hPa1024,8 hPa
18:22
1034,8 hPa
00:57
7,1 km/h
NO
25,4 km/h
15:57  
---
63 %36 %
17:02
88 %
08:02
43,8 klux89,1 klux
14:02
11:50 Std 
17.
Mai
13,2 C4,2 C
06:22
22,4 C
18:12
1022,1 hPa1017,8 hPa
20:02
1026,4 hPa
00:47
6,4 km/h
NO
25,6 km/h
10:27  
---
64 %40 %
18:12
84 %
07:32
44,5 klux84,1 klux
11:42
13:20 Std 
18.
Mai
14,5 C7,0 C
06:09
22,3 C
18:09
1014,4 hPa1009,4 hPa
19:09
1020,1 hPa
01:39
3,3 km/h
NW
16,5 km/h
12:34  
---
66 %46 %
13:59
84 %
08:19
35,3 klux96,1 klux
13:24
8:00 Std 
19.
Mai
16,5 C7,2 C
06:30
25,5 C
17:35
1008,8 hPa1006,8 hPa
17:35
1011,6 hPa
01:10
5,1 km/h
W-SW
25,3 km/h
13:25  
---
64 %39 %
13:15
85 %
08:00
40,5 klux90,8 klux
13:50
10:35 Std 
20.
Mai
19,2 C9,7 C
06:06
28,8 C
17:11
1011,4 hPa1010,1 hPa
00:01
1013,0 hPa
23:57
4,9 km/h
SO
28,2 km/h
14:31  
---
60 %33 %
15:41
83 %
07:26
39,1 klux89,2 klux
14:16
9:10 Std 
21.
Mai
20,2 C11,5 C
06:52
28,4 C
15:57
1011,4 hPa1006,5 hPa
23:43
1014,6 hPa
06:52
5,5 km/h
SO
28,6 km/h
16:52  
---
58 %32 %
16:02
78 %
08:12
34,0 klux85,2 klux
12:22
4:00 Std 
22.
Mai
19,9 C13,7 C
22:19
27,9 C
16:28
1008,4 hPa1005,4 hPa
02:38
1012,3 hPa
22:29
8,9 km/h
W
45,8 km/h
19:23  
6,2 l/m
2:36 Stunden
59 %39 %
17:33
83 %
22:19
40,2 klux88,3 klux
13:18
9:15 Std 
23.
Mai
15,1 C11,7 C
23:55
20,5 C
17:44
1010,8 hPa1009,2 hPa
08:14
1012,5 hPa
23:55
3,7 km/h
W-SW
16,4 km/h
15:59  
7,4 l/m
4:30 Stunden
81 %63 %
17:49
89 %
11:54
24,6 klux105,0 klux
13:24
4:36 Std 
24.
Mai
13,7 C9,0 C
03:45
19,5 C
17:55
1015,4 hPa1012,5 hPa
00:00
1020,0 hPa
23:56
7,5 km/h
W-SW
26,3 km/h
15:30  
---
15 Minuten
73 %50 %
19:10
88 %
04:20
28 klux101 klux
15:25
4:55 Std 
25.
Mai
15,1 C5,6 C
05:56
25,4 C
18:26
1019,7 hPa1017,1 hPa
18:26
1022,5 hPa
07:26
2,7 km/h
SO
16,1 km/h
16:46  
---
63 %35 %
18:11
85 %
07:46
41 klux96 klux
14:01
9:00 Std 
26.
Mai
14,5 C12,1 C
06:12
18,3 C
16:37
1015,1 hPa1011,0 hPa
20:57
1018,6 hPa
02:42
2,2 km/h
NW
12,1 km/h
16:32  
12,9 l/m
8:36 Stunden
82 %69 %
00:02
90 %
12:17
12,9 klux68,1 klux
14:27
10 Min 
27.
Mai
14,2 C13,3 C
05:48
16,8 C
15:48
1010,3 hPa1009,1 hPa
08:43
1012,3 hPa
23:59
7,4 km/h
W
27,4 km/h
12:43  
9,9 l/m
10:55 Stunden
89 %80 %
15:53
91 %
05:53
12,9 klux113,0 klux
15:03
10 Min 
28.
Mai
13,6 C11,7 C
06:04
15,7 C
18:29
1011,8 hPa1010,4 hPa
05:14
1013,4 hPa
23:45
10,0 km/h
W
25,1 km/h
10:39  
---
83 %70 %
17:39
91 %
00:04
15 klux48 klux
11:19
--- 
29.
Mai
12,3 C9,2 C
23:56
14,6 C
14:10
1015,4 hPa1013,4 hPa
00:00
1020,1 hPa
23:56
3,9 km/h
NW
20,1 km/h
14:05  
2,1 l/m
6:16 Stunden
86 %78 %
14:05
90 %
07:25
9,8 klux27,6 klux
12:20
--- 
30.
Mai
10,3 C4,8 C
06:46
16,9 C
18:51
1021,8 hPa1020,1 hPa
00:01
1023,4 hPa
23:57
3,4 km/h
O-SO
18,8 km/h
17:16  
0,2 l/m
45 Minuten
76 %51 %
18:16
91 %
08:46
21,9 klux87,1 klux
16:26
3:15 Std 
31.
Mai
12,7 C3,5 C
06:02
21,8 C
16:52
1022,0 hPa1019,6 hPa
16:52
1024,7 hPa
02:17
3,7 km/h
W-NW
18,0 km/h
14:02  
---
67 %42 %
13:17
88 %
08:07
39,3 klux100,0 klux
13:37
8:20 Std 



Mai
2014

Temperatur

  

Luftdruck

  

Wind

  

Regen

  

Luftfeuchte

  

Helligkeit

Sonnen-
schein

Min

Max

Min

Max

Max

Max

Min

Max

Max

Max

12,9 C

-0,6 C

06:15 Uhr
04.05.2014

28,8 C

17:11 Uhr
20.05.2014

1015,8 hPa

1004,9 hPa

16:52 Uhr
11.05.2014

1034,8 hPa

00:57 Uhr
16.05.2014

8,9 km/h

W-SW

60,6 km/h

14:30 Uhr
09.05.2014

12,9 l/m

8:36 Stunden
26.05.2014

72 %

32 %

16:02 Uhr
21.05.2014

91 %

05:53 Uhr
27.05.2014

29 klux

113,0 klux

15:03 Uhr
27.05.2014

13:20 Std

am
17.05.2014

Gesamt

Gesamt

67,0 l/m

18 Tage
61:24 h

156:50 Std


Wetter-Diagramme Mai 2014     Heinzenberg / Taunus   
TemperaturLuftfeuchte
SolarstrahlungLuftdruck
HelligkeitSonnenschein
RegenmengeRegendauer
Wind-GeschwindigkeitWind-Richtung